カタログに戻る

TIANQI 35

運用中通信LEO
NORAD 62367·PAYLOAD·🇨🇳 China

打ち上げ Dec 19, 2024 から Yellow Sea Launch Area

Loading…

次のパス (今後24時間)

TLE

最新Source: Space-Track

元期: Sep 14, 2026, 12:37 UTC

1 62367U 24245C   26257.52571388 -.00000017  00000-0  76875-4 0  9998
2 62367  44.9846 284.2135 0008103  59.0761 301.0868 13.99219150 88851

AllMySatでTIANQI 35をリアルタイム追跡

Download on the App Store